Location: Unspecified
(40.9447°N, 78.9903°W)
Time: 09:44:42
(UTC-04:00)

Resurs 1-4 Rocket - Pass Details

Date: 03 August 2021
Orbit: 799 x 814 km, 98.6° (Epoch: 27 September)

Event Time Altitude Azimuth Distance (km) Brightness Sun altitude
Rises 02:33:11 0° 17° (NNE) 3,336 6.5 -29.4°
Reaches altitude 10° 02:35:34 10° 21° (NNE) 2,398 5.5 -29.2°
Enters shadow 02:40:32 60° 85° (E) 919 2.4 -28.9°
